Location: Eaton Estates
(41.3089°N, 82.0057°W)
Time: 19:43:09
(UTC+00:00)

O/OREOS (USA 219) - Pass Details

Date: 26 March 2023
Orbit: 621 x 646 km, 72.0° (Epoch: 22 May)

Event Time Altitude Azimuth Distance (km) Brightness Sun altitude
Rises 09:46:52 0° 153° (SSE) 2,942 ? -18.2°
Reaches altitude 10° 09:50:15 10° 127° (SE) 2,036 ? -17.6°
Maximum altitude 09:52:24 13° 98° (E) 1,826 ? -17.2°
Drops below altitude 10° 09:54:33 10° 70° (ENE) 2,039 ? -16.9°
Sets 09:57:56 0° 44° (NE) 2,950 ? -16.2°
